Regional Weather Roundup
Issued by NWS

Home | Current Version | Previous Version | Graphics & Text | Print | Product List | Glossary Off
Versions: 1 2 3 4 5 6 7 8 9 10 11 12 13 14 15 16 17 18 19 20 21 22 23 24 25 26 27 28 29 30 31 32 33 34 35 36 37 38 39 40 41 42 43 44 45 46 47 48 49 50

000
ASUS43 KTOP 030659
RWRKS

WEATHER ROUNDUP FOR KANSAS
NATIONAL WEATHER SERVICE GOODLAND KS
100 AM CST TUE MAR 03 2015

NOTE:  "FAIR" INDICATES FEW OR NO CLOUDS BELOW 12,000 FEET WITH NO
SIGNIFICANT WEATHER AND/OR OBSTRUCTIONS TO VISIBILITY.

KSZ001>006-013>018-027>032-041>047-030800-
NORTHWEST KANSAS

CITY           SKY/WX    TMP DP  RH WIND       PRES   REMARKS
GOODLAND       CLOUDY    34  31  88 S21       29.49F WCI  22
HAYS           CLOUDY    32  21  64 S12       29.70F WCI  23
HILL CITY      CLOUDY    31  26  82 S12G18    29.62F WCI  22
RUSSELL        CLOUDY    31  27  85 S12       29.72F WCI  22
$$

KSZ061>065-074>080-084>089-030800-
SOUTHWEST KANSAS

CITY           SKY/WX    TMP DP  RH WIND       PRES   REMARKS
DODGE CITY     CLOUDY    35  29  78 S28G35    29.69F WCI  22
ELKHART          N/A     39  28  64 SW21        N/A  WCI  29
GARDEN CITY    CLOUDY    34  32  92 S22G30    29.66F WCI  22
GREAT BEND     CLOUDY    34  25  69 S21       29.73F WCI  22
LIBERAL        CLOUDY    36  30  80 S17       29.75F WCI  25
$$

KSZ066>073-081>083-090>101-030800-
SOUTHEAST KANSAS

CITY           SKY/WX    TMP DP  RH WIND       PRES   REMARKS
CHANUTE        CLOUDY    34  34 100 S15       29.96F FOG     WCI  24
COFFEYVILLE    CLOUDY    35  33  92 S16       29.98F FOG     WCI  25
HUTCHINSON     CLOUDY    33  30  88 S24G30    29.82F FOG     WCI  20
MEDICINE LODGE   N/A     33  30  88 S12       29.85F WCI  24
NEWTON         CLOUDY    32  28  86 S24       29.84F WCI  19
PARSONS        CLOUDY    35  34  96 S10       29.97F FOG     WCI  27
WICHITA INTL   CLOUDY    33  32  96 S20       29.88F FOG     WCI  21
WICHITA JABRA  CLOUDY    33  32  96 S24G30    29.88F WCI  20
WICHITA MCCONL CLOUDY    32  32 100 S20       29.90F FOG     WCI  20
WINFIELD       CLOUDY    35  34  96 S15       29.93F FOG     WCI  25
$$

KSZ007>012-019>026-033>040-048>060-102>105-030800-
NORTHEAST KANSAS

CITY           SKY/WX    TMP DP  RH WIND       PRES   REMARKS
CONCORDIA      CLOUDY    31  27  85 S16       29.77F WCI  20
EMPORIA        CLOUDY    33  32  96 S13       29.90F FOG     WCI  24
LAWRENCE       CLOUDY    34  29  82 S12       29.94F WCI  25
MANHATTAN      CLOUDY    34  32  92 S12       29.85F FOG     WCI  25
OLATHE IND     CLOUDY    32  30  92 S15       29.94F FOG     WCI  22
OLATHE EXE     CLOUDY    33  30  88 S14       29.94F FOG     WCI  23
SALINA         CLOUDY    33  30  88 S16       29.81F FOG     WCI  23
TOPEKA BILLARD CLOUDY    34  30  85 S9G17     29.91F
TOPEKA FORBES  CLOUDY    35  31  85 S14       29.89F FOG     WCI  26
$$



USA.gov is the U.S. government's official web portal to all federal, state and local government web resources and services.